RH
38 39 41 43 47 46 52 56 63 76 73 79 84 77 73 67 61 53 54 57 50 60 71 64 62 56 50 52 55 64 63 58 58 55 60 61 47 51 58 44 41 44 45 49 49 50 46 36 30 29 34 30 34 63 86 82 82 86 76 76 77 71 70 67 66 65 65 65 64 65 66 68 71 74 75 77 77 77 76 73 73 72 73 75 73 71 69 69 70 71 72 68 69 67 66 70 68
40 41 43 45 44 44 61 63 68 81 74 80 81 80 76 61 58 56 59 61 56 59 73 72 62 59 61 59 51 51 53 56 62 58 55 52 49 57 56 44 40 42 44 47 45 44 41 32 33 38 29 18 21 51 83 82 82 83 76 79 77 74 72 70 68 66 66 65 67 68 69 69 72 75 76 80 79 77 75 72 72 72 74 76 75 75 73 72 70 69 71 69 69 68 68 70 71
39 43 44 42 43 51 70 67 75 82 75 79 75 80 72 55 58 60 64 64 68 69 67 63 51 52 49 47 44 41 53 61 65 63 54 50 52 53 50 43 37 40 41 42 42 39 36 32 40 40 21 14 16 41 80 83 80 79 76 80 79 78 75 72 71 68 68 67 68 69 71 72 73 76 78 80 78 75 73 71 71 73 74 75 77 77 78 77 75 73 73 73 72 70 70 72 75
39 43 40 43 50 59 72 67 83 88 74 78 76 85 76 64 60 55 68 72 78 68 52 49 45 48 40 46 48 38 53 58 54 54 49 47 44 42 44 41 37 39 38 37 36 34 33 33 39 32 16 15 13 32 70 83 80 76 77 80 80 81 77 75 74 71 71 69 69 71 74 76 76 78 79 77 74 72 70 71 70 72 74 76 79 79 81 79 78 77 77 77 76 74 72 74 75
37 39 33 39 53 61 68 66 84 85 70 78 79 85 82 71 62 61 70 69 74 62 48 49 45 44 38 52 53 41 56 53 44 43 40 40 36 36 40 39 39 38 36 34 31 32 32 32 33 23 16 16 13 23 51 77 82 77 77 79 82 83 79 78 77 75 75 74 73 74 76 77 77 76 76 74 72 71 69 70 70 72 74 77 80 80 80 77 78 76 76 78 79 78 75 76 77
35 35 31 33 47 54 61 67 80 81 72 76 72 76 79 67 65 72 66 54 63 66 56 48 43 40 36 48 52 49 52 41 39 42 34 34 34 35 39 39 39 37 34 32 29 31 29 31 27 18 19 17 13 15 34 69 83 79 77 78 82 82 81 81 80 79 78 78 77 77 77 75 75 72 73 74 71 70 69 70 71 73 74 77 80 79 77 75 76 75 75 77 79 80 78 80 79
28 29 41 42 51 59 62 71 78 78 74 70 66 64 62 64 72 67 53 46 49 57 54 52 49 36 35 41 41 45 40 33 36 34 29 30 33 36 39 39 37 35 32 30 29 29 28 27 22 21 21 17 14 13 30 67 86 81 78 78 81 82 80 81 83 82 79 80 79 77 75 72 73 72 72 72 70 67 67 69 70 72 75 77 80 78 75 73 73 74 75 76 79 81 81 81 78
25 30 55 57 58 64 64 73 75 78 77 70 67 59 54 67 77 60 52 52 45 49 52 63 58 34 47 48 39 47 37 32 32 26 27 28 32 37 39 38 35 33 30 30 29 28 27 22 23 25 18 14 14 14 31 66 87 83 79 78 79 82 79 78 82 80 78 79 77 75 73 70 69 72 72 71 71 67 63 68 71 73 76 76 78 78 74 73 72 74 75 76 79 80 81 79 77
24 30 53 57 55 60 65 69 67 70 72 66 61 59 63 74 73 59 57 54 50 53 55 70 58 36 58 59 50 57 41 32 32 27 28 26 31 35 36 35 30 30 30 30 28 27 25 20 24 24 15 14 14 18 34 62 85 83 79 80 79 83 82 79 80 80 77 78 76 73 72 68 66 71 72 71 72 68 63 68 70 71 76 76 77 77 76 74 72 74 75 76 78 79 81 78 77
29 39 49 53 52 56 63 59 58 63 62 62 57 56 65 74 69 58 56 53 53 50 54 70 57 41 53 56 57 54 40 34 33 31 28 26 30 32 33 31 27 27 28 29 27 25 23 21 22 18 15 15 14 21 33 52 77 83 80 82 81 84 87 83 80 79 76 75 75 70 68 66 65 68 69 72 72 69 66 69 71 71 75 76 76 78 79 77 74 76 77 76 77 79 81 78 78
39 57 52 50 55 55 62 58 56 57 58 62 59 63 68 69 64 59 59 57 60 52 52 61 54 53 51 57 64 47 36 37 33 32 29 27 29 30 30 29 28 25 25 26 25 24 22 20 18 14 14 16 15 17 27 41 62 81 85 83 81 83 88 85 81 78 74 73 73 68 66 63 64 66 66 70 68 59 53 54 61 69 74 74 76 78 80 79 74 75 77 75 78 80 79 77 77
33 59 57 50 60 59 65 62 56 52 55 55 49 63 70 64 55 52 58 55 60 57 56 52 46 56 54 63 71 52 42 40 33 29 28 28 29 29 28 28 28 26 25 25 24 24 23 20 16 14 14 15 16 13 21 32 43 68 86 86 82 83 86 85 84 80 75 74 72 69 66 64 65 64 62 61 50 38 30 28 36 53 71 77 78 79 78 78 74 74 75 73 77 78 76 78 74
32 58 56 45 68 69 60 54 57 53 43 45 46 58 62 60 53 50 57 54 57 55 55 53 45 46 48 56 60 56 50 38 33 30 29 28 28 29 28 28 28 28 27 25 25 24 23 22 16 15 16 14 15 13 15 23 28 46 74 89 84 82 86 84 86 84 79 76 73 70 66 69 67 53 49 47 34 26 20 16 20 30 57 78 80 80 77 76 74 74 76 73 75 75 76 77 69
30 57 49 33 60 62 48 40 43 40 28 39 54 62 59 56 59 59 57 51 54 51 47 52 46 38 41 44 45 57 51 33 33 33 30 28 28 30 29 29 28 29 28 27 26 25 24 23 18 16 17 15 14 14 13 15 18 27 50 81 87 82 84 84 85 85 82 75 73 70 69 72 59 44 41 41 35 25 13 9 13 14 41 73 78 77 75 74 74 73 76 74 73 75 78 74 57
27 60 53 31 45 42 37 36 32 31 29 39 52 64 61 56 62 64 55 44 48 49 42 44 40 35 40 37 38 50 38 27 35 35 33 32 32 31 31 31 30 30 29 28 27 26 26 24 21 17 17 17 15 15 15 13 14 16 26 58 85 86 83 83 83 85 82 75 74 72 75 63 38 39 40 39 42 23 7 7 7 10 40 71 74 75 75 74 73 71 75 73 72 75 72 58 35
50 61 48 31 42 36 33 40 39 35 39 47 53 60 58 59 63 58 55 47 44 47 41 41 37 32 40 39 35 35 25 28 37 39 40 37 37 35 35 34 32 32 30 30 29 28 28 26 23 19 19 20 18 16 16 15 13 14 14 31 66 86 85 82 82 84 82 75 76 76 74 44 17 35 34 32 45 21 4 7 4 12 44 72 73 72 72 72 72 71 73 70 71 68 52 32 14
53 40 34 33 43 38 36 43 39 35 42 53 55 55 54 59 60 50 52 50 42 47 46 45 42 35 38 37 31 26 26 36 39 43 47 42 42 40 38 38 36 35 33 32 31 30 30 29 26 22 21 22 23 20 17 17 14 13 12 14 35 67 81 83 84 84 83 77 78 78 64 28 9 27 24 22 36 18 4 7 4 11 37 64 67 61 59 59 64 69 69 66 66 53 28 13 7
29 28 28 33 42 39 43 44 41 37 34 45 52 56 58 56 53 41 42 48 45 48 50 50 47 40 36 32 28 28 33 40 41 45 48 45 45 43 42 41 39 38 36 34 32 31 31 31 30 26 23 23 26 26 22 20 17 14 12 11 15 36 63 80 84 82 81 76 78 77 51 17 6 15 13 12 17 10 5 5 5 8 24 47 51 43 38 33 42 55 55 55 51 30 12 7 7
32 44 33 43 51 43 47 41 41 38 28 41 52 57 59 53 46 37 37 46 49 49 49 49 47 42 38 34 33 33 36 41 43 45 47 47 45 44 43 41 41 40 37 36 32 32 31 31 32 30 25 23 25 29 29 25 23 19 14 12 9 16 39 64 77 79 78 76 77 69 37 9 5 8 8 9 7 5 6 6 6 7 14 25 28 22 16 11 17 27 29 29 24 10 7 8 7
41 45 35 56 58 46 49 38 36 39 33 35 42 53 59 54 45 37 40 45 48 49 44 44 47 43 38 37 38 38 40 43 44 44 46 47 45 43 41 40 42 40 36 34 32 32 32 32 32 31 28 25 25 28 32 31 29 26 21 16 11 8 18 41 64 73 73 74 75 57 26 6 5 7 6 7 6 5 7 8 7 6 8 10 10 8 6 5 6 8 9 9 7 5 8 8 8
35 38 40 55 50 40 39 34 38 45 42 35 40 51 49 49 48 40 42 44 43 42 37 40 41 38 37 37 40 46 46 44 45 45 46 46 44 42 39 38 37 36 35 34 34 33 31 32 32 31 29 27 25 27 31 34 33 31 29 24 18 10 8 21 43 61 65 69 71 49 20 6 5 7 7 7 6 5 8 9 7 6 6 5 6 6 5 5 4 5 5 6 6 7 9 9 11
28 40 47 49 41 30 29 38 44 45 45 39 42 43 37 42 45 42 44 45 40 31 33 41 38 32 34 34 39 48 51 47 46 46 46 46 44 42 39 37 36 35 36 35 34 32 30 31 32 30 28 28 26 25 28 32 34 34 33 31 28 21 12 9 19 39 49 55 62 46 20 8 7 7 7 6 5 6 8 8 7 6 6 6 6 6 6 5 5 5 5 7 8 10 13 14 14
27 43 50 47 41 31 31 41 45 46 41 38 42 39 40 43 42 48 47 43 38 28 31 45 46 39 34 33 37 45 50 49 46 45 44 44 44 43 40 38 37 36 36 34 31 30 31 30 30 29 28 27 26 24 26 29 32 34 35 34 32 29 25 17 11 17 24 31 45 41 21 10 7 8 8 6 5 7 7 7 7 6 6 6 6 6 6 6 5 5 7 9 12 15 19 20 18
30 42 52 47 41 34 34 37 41 50 41 38 46 39 40 42 42 49 44 37 35 32 34 44 51 51 47 44 42 42 46 48 45 42 40 40 40 39 38 37 36 35 35 33 33 33 32 30 29 29 27 27 27 25 25 26 29 32 35 36 34 32 30 27 20 16 15 16 25 29 19 10 8 8 7 6 6 7 7 7 7 7 6 6 6 6 6 6 6 6 9 12 17 21 24 24 20
38 40 54 51 44 41 41 44 45 48 45 42 46 41 37 39 41 41 36 30 28 30 32 36 42 47 52 52 49 46 44 45 45 42 39 38 36 36 36 36 35 34 34 32 33 34 32 32 30 28 27 27 28 27 26 25 27 32 35 35 36 35 31 29 26 25 24 21 20 22 18 12 10 9 8 6 6 7 7 7 7 7 7 7 6 7 7 6 7 8 12 17 21 25 26 26 20
47 44 54 51 44 46 46 49 48 45 46 43 39 38 39 40 39 34 30 25 24 28 29 32 36 38 42 45 48 49 45 43 44 42 40 38 36 37 36 35 36 34 32 32 32 32 31 32 31 28 27 26 28 29 28 27 28 31 34 35 36 36 34 30 28 27 29 29 26 23 19 15 12 11 9 7 7 6 6 7 7 8 9 8 7 7 7 7 7 9 14 18 22 26 29 28 21
52 53 55 51 46 51 52 48 48 45 42 43 37 33 37 39 36 30 26 25 29 32 29 31 34 35 36 36 41 46 48 44 39 39 39 39 39 39 37 36 37 34 33 33 32 31 31 31 30 28 27 27 29 29 30 30 30 30 31 36 37 36 36 32 30 28 29 32 30 26 22 18 15 14 11 9 8 7 7 7 8 9 9 9 7 7 7 7 8 9 12 15 21 27 30 29 22
47 48 46 51 49 45 49 41 41 43 35 40 39 33 36 38 38 33 25 25 31 33 31 31 31 33 33 33 36 38 44 43 38 39 39 39 38 38 38 37 37 36 35 33 30 31 31 31 29 28 29 29 31 30 31 32 31 32 33 37 37 37 37 35 32 29 30 33 33 29 25 22 19 17 16 13 10 9 8 7 8 8 8 8 8 7 7 7 8 9 11 14 20 26 29 27 21
46 50 43 49 47 34 38 37 39 39 32 40 40 34 34 36 38 31 25 27 30 32 31 31 29 30 31 32 33 32 36 38 40 42 38 35 33 33 35 34 35 36 35 32 31 32 31 30 29 29 31 31 31 30 32 34 33 34 36 37 38 39 39 36 33 30 31 35 36 32 27 26 23 21 20 18 15 12 10 7 7 7 7 8 9 8 8 8 9 10 12 17 22 27 30 25 21
40 50 54 54 47 33 31 36 44 36 33 43 38 38 37 31 32 25 27 30 28 32 30 29 30 30 31 32 32 31 31 34 38 39 36 34 32 32 31 30 32 33 33 33 33 33 30 31 31 31 32 31 31 32 34 35 35 36 37 38 39 40 39 37 34 31 32 36 37 33 29 29 26 23 22 22 20 16 12 10 7 6 7 8 9 8 8 10 11 13 17 23 28 31 29 23 21
47 52 67 67 49 39 37 41 49 35 36 42 31 45 45 27 27 24 29 34 30 34 30 29 32 31 32 33 33 32 30 31 32 31 31 31 31 32 31 29 30 30 31 32 32 30 30 32 32 31 31 31 32 34 35 35 35 37 38 39 39 39 40 38 35 32 34 37 38 34 31 31 28 25 24 25 25 20 16 13 10 7 7 9 10 8 9 12 14 17 22 27 32 31 26 22 22
70 53 59 68 52 49 48 43 51 38 39 45 31 48 54 34 30 26 29 34 33 34 32 32 33 33 34 33 33 32 30 30 29 29 28 28 29 31 31 30 30 30 30 31 31 30 32 33 32 31 30 32 33 33 34 35 37 38 38 39 39 40 40 38 35 35 36 39 39 35 32 33 31 27 26 27 28 24 19 17 15 9 7 10 10 10 11 13 17 22 26 28 29 28 24 22 25
81 58 49 59 53 58 53 39 55 53 44 49 42 46 51 38 30 26 29 31 33 36 34 34 35 35 35 33 34 33 32 31 31 30 26 25 26 27 29 29 30 30 29 30 31 32 32 32 31 31 31 31 31 32 34 37 38 39 40 40 40 41 40 38 37 36 38 39 39 36 34 35 33 28 27 28 30 28 22 20 20 13 9 10 11 11 12 15 19 24 29 30 27 25 24 25 27
76 72 64 64 60 64 58 40 53 62 50 51 52 48 47 39 32 32 31 31 36 37 33 35 38 37 36 36 36 34 35 34 32 29 27 28 26 24 25 25 28 29 29 30 31 31 31 31 31 31 32 32 32 34 36 38 41 42 43 43 42 42 41 39 38 38 39 40 39 36 36 36 33 29 27 28 31 30 25 22 23 18 13 11 12 13 13 18 23 27 31 31 30 27 26 27 29
60 67 70 75 72 66 60 47 50 61 52 49 53 51 49 41 37 35 30 33 38 35 34 38 41 39 39 39 37 36 38 36 34 32 34 36 31 25 22 22 25 27 28 29 29 30 30 31 31 32 33 33 35 38 40 42 45 46 45 45 44 43 42 40 39 39 39 40 39 37 37 37 34 31 28 28 31 31 27 26 26 24 17 12 13 14 16 22 26 30 32 33 33 31 30 30 32
55 65 71 76 74 63 56 51 58 63 53 52 53 49 48 41 38 36 31 36 37 33 36 40 41 42 41 39 37 38 36 34 37 36 36 37 32 26 23 23 24 26 28 29 29 29 30 32 34 34 33 34 38 41 43 45 48 49 49 48 47 44 43 42 41 40 41 40 39 39 39 38 36 32 30 29 31 31 29 28 28 28 21 15 14 14 16 19 23 27 29 32 36 37 38 36 36
65 73 77 80 76 62 47 47 65 67 57 65 63 53 53 46 41 38 36 39 34 31 38 41 43 42 39 38 37 36 34 36 38 35 31 30 28 25 23 24 25 26 27 28 29 29 30 33 34 33 33 36 40 41 42 44 47 49 49 49 47 45 45 45 43 41 42 41 40 41 40 39 37 35 32 31 31 31 30 29 30 30 25 19 14 12 12 15 21 26 29 35 37 39 42 41 40
74 75 75 73 67 55 40 43 66 65 55 67 66 57 54 43 40 40 41 40 31 30 36 42 47 44 39 35 34 34 35 40 39 34 32 28 27 27 24 25 26 26 27 27 28 29 31 33 32 32 34 37 38 39 41 41 41 43 44 44 44 46 47 46 45 44 43 43 42 41 40 40 38 36 35 33 32 32 32 31 32 32 28 23 17 13 12 17 26 32 36 40 40 42 42 42 41
71 71 67 56 52 53 49 51 62 58 54 68 69 61 50 43 46 46 45 41 32 34 38 45 51 44 37 32 33 35 33 36 36 35 36 30 27 28 26 25 25 26 25 26 27 28 29 30 30 32 34 36 36 38 40 38 38 40 42 44 44 46 47 46 46 46 45 44 43 42 41 40 39 38 36 35 34 33 33 33 33 33 30 27 22 17 16 21 31 37 41 41 41 44 43 43 42
57 57 53 47 49 50 47 50 58 58 60 70 70 60 54 54 47 36 42 43 34 37 40 46 51 45 42 39 39 41 36 34 34 32 34 32 28 27 26 25 24 24 23 23 24 25 26 26 27 30 32 34 36 37 38 38 40 43 45 46 46 46 45 45 45 45 45 44 43 43 42 40 39 39 37 35 35 34 34 34 34 34 31 30 26 20 16 20 29 37 43 43 42 44 44 46 45
57 59 47 41 49 52 49 54 63 64 64 66 64 51 50 60 45 26 40 43 29 34 39 38 42 44 47 44 40 43 42 41 40 36 33 37 35 27 23 26 28 26 23 23 24 25 26 26 27 29 31 33 35 37 39 42 45 46 47 48 48 46 44 44 44 43 44 44 44 42 41 40 39 39 37 36 36 35 35 35 34 34 33 31 29 24 17 16 25 35 41 44 43 41 42 46 49
57 61 51 38 50 61 63 69 68 57 50 54 56 46 43 53 44 35 47 42 26 33 42 39 37 41 44 43 40 42 44 45 46 44 40 42 41 31 21 22 25 25 24 25 26 29 30 30 31 32 33 34 34 36 40 44 46 46 48 48 47 46 45 43 41 41 42 42 43 42 41 41 39 39 38 36 36 36 36 35 35 35 34 32 31 27 19 16 26 35 39 42 43 41 40 43 49
43 48 52 48 59 65 65 71 63 48 41 48 58 49 42 40 29 33 46 37 31 39 45 44 42 43 46 46 45 44 45 45 46 47 46 46 46 42 35 30 30 28 27 28 28 30 31 31 33 33 34 35 36 39 42 45 47 46 47 47 46 46 46 44 41 40 41 40 41 42 42 41 40 40 39 37 37 37 37 36 36 36 35 34 32 29 24 21 25 31 35 41 42 42 41 41 46
39 46 52 53 58 59 65 68 64 63 52 53 72 60 48 49 33 33 42 38 43 51 50 51 48 48 49 47 47 46 45 46 47 48 49 50 50 50 49 45 40 36 34 33 32 33 36 37 40 40 40 40 41 43 44 45 47 47 47 47 47 47 47 45 43 43 42 41 41 41 41 41 40 40 39 38 38 38 39 38 37 37 36 34 32 32 29 24 24 28 37 42 43 44 42 40 42
48 58 58 60 63 64 73 71 75 86 54 37 66 55 36 45 33 29 44 53 63 64 59 58 53 51 52 49 48 47 46 46 47 48 49 51 52 51 51 49 46 44 42 42 40 38 35 34 37 39 41 45 48 50 51 49 48 48 48 49 50 49 48 47 47 47 47 44 42 41 41 40 40 40 39 39 38 39 40 38 38 39 37 36 35 35 31 23 23 29 36 41 43 44 42 39 41
54 61 52 60 77 78 79 76 78 84 53 36 58 46 26 33 34 43 62 71 77 72 63 60 55 53 52 51 50 48 47 47 46 48 49 50 52 52 52 52 51 50 49 48 48 45 38 33 32 32 32 35 40 46 53 56 55 54 52 52 52 50 49 50 51 52 51 49 45 42 41 40 40 40 39 40 39 40 41 40 40 39 37 37 36 35 32 26 25 29 34 38 41 42 40 40 43
54 57 45 43 62 70 79 85 66 47 45 53 59 46 31 33 48 70 78 75 78 77 68 61 55 52 51 51 51 49 48 48 47 48 48 49 52 54 54 55 55 54 54 54 54 54 51 47 46 43 37 34 33 35 41 49 54 58 57 55 55 52 51 53 54 54 54 52 48 44 42 40 40 40 40 41 41 41 41 42 41 40 39 38 36 35 33 28 24 27 36 41 42 42 39 41 45
49 50 43 30 39 51 67 82 58 29 37 51 53 50 39 41 62 74 72 69 73 76 72 64 57 53 51 50 49 49 49 48 49 49 49 51 53 56 58 58 58 58 58 59 60 60 59 57 58 57 52 47 44 41 40 43 48 54 57 58 57 55 53 54 55 55 54 53 51 46 44 41 40 41 41 42 43 42 42 44 45 44 42 39 36 37 36 29 25 31 38 42 42 41 40 41 45
45 49 48 44 54 54 50 58 50 37 36 34 40 47 39 49 73 71 63 64 65 69 69 62 57 52 49 49 47 48 49 48 50 50 51 53 54 57 60 60 61 61 61 63 64 65 66 65 65 64 62 59 56 52 49 48 48 50 54 58 59 58 56 56 56 55 55 54 52 49 45 42 41 42 42 43 42 42 43 46 47 46 44 41 38 39 37 30 29 35 40 42 41 39 40 42 43
46 52 49 51 60 56 50 53 50 43 36 25 29 41 42 53 70 67 58 55 53 56 58 54 52 48 47 47 45 46 47 47 51 52 52 53 53 56 59 61 62 63 64 65 65 67 68 69 70 70 68 65 63 61 58 56 55 53 54 55 58 60 60 59 57 56 56 56 54 51 47 44 42 41 41 41 40 41 44 45 47 47 44 43 41 41 38 32 33 40 44 42 40 38 39 41 42
55 60 54 52 51 49 55 59 51 43 43 35 28 42 55 54 58 61 51 45 45 45 46 45 42 42 44 45 43 44 46 48 50 52 52 53 52 53 56 59 62 64 66 66 66 67 69 69 70 71 73 70 68 68 66 63 61 59 58 56 56 59 61 62 61 58 57 57 56 54 50 45 42 41 40 40 40 42 44 46 47 48 47 46 43 41 38 36 43 50 49 44 39 38 40 42 44
57 62 53 52 53 51 55 60 52 45 54 59 47 51 61 55 55 58 46 42 45 40 40 41 36 37 41 41 42 44 46 49 52 53 54 54 53 52 53 57 61 66 69 70 69 70 69 69 69 69 71 71 70 71 71 69 66 64 63 62 59 57 59 62 63 62 60 59 59 57 54 49 44 40 39 39 41 43 43 45 47 48 48 47 45 43 40 44 56 59 52 46 41 40 42 43 45
45 49 39 46 56 52 56 66 62 55 61 65 56 49 49 51 59 57 47 47 47 42 42 40 36 38 40 41 44 44 45 49 52 53 54 54 53 51 52 55 59 64 71 74 74 74 73 71 70 71 71 71 71 73 74 75 73 69 66 65 64 61 59 60 61 63 62 62 63 61 59 55 49 44 40 38 40 42 43 44 46 48 49 48 46 44 44 54 67 64 54 48 41 40 43 44 46
43 41 38 50 61 58 66 74 69 67 66 57 49 44 44 57 68 62 55 55 51 46 44 41 40 41 43 45 46 47 47 48 51 53 52 52 51 50 51 53 56 60 66 71 72 74 75 74 72 73 73 72 73 74 77 81 79 74 69 67 67 65 62 61 60 61 62 63 65 64 62 59 54 50 44 40 39 41 43 45 46 48 49 48 48 45 51 67 76 68 58 51 41 39 44 46 48
48 44 46 49 52 56 66 69 64 64 64 56 46 39 51 77 85 72 64 58 53 49 44 43 45 44 46 48 49 51 50 49 52 54 53 52 50 49 50 52 54 56 60 64 66 69 71 72 72 73 73 73 73 74 77 81 81 77 73 70 69 67 66 64 62 60 61 63 64 64 64 61 57 53 48 44 42 41 43 45 46 48 49 50 49 48 59 77 81 72 65 57 46 44 46 46 50
54 58 57 51 49 53 55 59 64 62 59 62 55 41 59 87 83 69 65 57 53 54 50 49 50 47 48 52 53 55 53 51 52 53 55 53 48 46 46 48 51 53 56 59 61 64 66 67 68 69 70 71 70 71 74 78 78 76 75 73 70 69 68 67 66 63 62 62 62 62 63 62 58 54 48 45 44 42 43 45 46 48 49 52 53 57 70 84 82 74 68 59 52 49 48 48 52
42 47 49 50 52 54 54 56 63 63 57 65 69 58 66 82 70 58 60 55 54 57 54 55 54 50 51 52 54 56 53 51 50 50 53 52 46 43 41 44 48 49 52 54 57 61 63 65 65 65 67 68 67 68 70 74 75 74 75 75 73 72 70 70 69 67 64 63 62 62 62 62 60 55 49 44 43 43 43 44 46 48 50 52 57 66 80 86 82 74 68 60 54 52 50 51 56
34 40 46 52 54 53 59 62 59 63 60 62 74 73 71 75 62 51 54 54 55 56 54 56 55 51 52 52 52 53 50 48 45 46 51 50 44 41 39 43 46 47 50 52 54 57 60 62 63 63 64 64 64 65 67 70 71 72 74 74 75 74 72 72 72 70 67 65 64 62 61 62 61 57 52 46 42 42 42 44 46 48 50 53 60 73 84 87 82 76 68 61 57 55 55 56 59
Wind_Speed
3 2 1 4 3 2 0 2 1 2 1 3 4 2 4 3 1 2 4 3 2 3 3 2 3 3 3 3 6 5 4 7 6 4 5 4 2 20 30 15 15 29 31 28 26 23 19 16 13 11 11 12 11 12 11 11 11 10 10 9 8 7 7 7 7 6 6 6 5 5 4 4 4 3 3 2 3 2 2 3 3 3 4 4 5 5 5 5 5 6 6 6 7 8 8 9 9
2 1 3 5 3 3 2 2 1 3 1 6 4 4 4 3 1 4 7 6 4 3 1 2 2 1 3 2 2 1 4 5 4 4 3 1 5 21 26 16 19 27 29 27 26 23 19 17 14 12 12 13 12 13 12 11 12 10 11 10 9 8 8 8 7 7 7 7 6 6 5 5 4 4 4 3 3 2 2 2 3 3 4 4 5 6 6 6 5 6 6 6 7 8 8 9 9
3 3 4 4 3 3 1 3 1 1 2 7 4 3 2 1 5 8 9 8 6 3 1 2 1 1 2 1 1 2 5 4 2 3 1 5 10 20 27 18 20 24 26 26 24 22 19 17 14 12 12 13 13 13 13 12 12 11 11 11 10 9 9 9 8 8 8 7 7 7 6 6 6 5 5 4 3 3 2 2 3 3 3 4 5 6 6 6 6 6 6 7 7 8 8 9 9
4 5 3 3 2 3 3 1 2 3 4 6 4 5 3 4 8 9 7 6 5 2 1 2 0 1 3 5 3 1 5 4 4 6 2 12 15 23 31 20 22 24 24 24 22 21 18 16 14 11 12 13 14 14 14 13 13 12 12 11 11 10 10 10 9 9 9 9 8 8 8 7 7 6 5 5 4 3 3 3 3 3 3 4 5 6 6 7 7 7 7 7 8 8 8 9 10
4 4 1 2 2 0 2 1 2 3 6 3 2 6 4 7 8 8 5 4 3 1 0 2 1 2 1 5 2 1 6 2 5 9 5 16 19 25 32 24 25 25 23 23 20 20 17 15 13 12 13 14 14 14 15 14 13 13 12 12 11 11 11 10 10 10 10 10 9 9 9 8 7 7 6 5 4 4 3 3 3 3 4 4 5 6 6 7 7 7 7 8 8 9 9 9 10
4 3 1 3 1 1 2 2 2 3 6 4 3 6 6 7 6 6 4 5 2 2 2 2 1 1 2 4 3 4 6 2 4 11 8 15 21 25 31 26 27 25 24 22 20 18 15 15 14 13 13 14 14 14 15 15 14 14 13 13 13 12 12 11 11 11 11 11 10 10 9 9 8 7 7 6 5 4 4 3 3 4 4 4 5 5 6 7 7 7 7 8 8 9 9 10 10
4 2 2 3 1 1 2 3 4 5 5 5 4 5 7 7 4 3 2 2 2 2 2 2 1 1 3 3 2 5 7 5 4 9 10 15 22 27 30 28 27 26 24 22 19 17 15 15 14 13 13 14 14 14 15 15 15 15 14 14 14 13 13 13 12 12 12 11 11 10 10 9 9 8 7 7 6 5 4 4 3 4 4 4 5 5 6 6 6 7 7 8 8 8 9 10 11
3 1 1 3 1 2 1 4 4 4 4 4 4 6 7 5 4 4 4 3 2 3 1 1 2 1 5 3 2 4 6 9 3 7 11 16 23 28 31 29 28 27 24 22 19 17 16 16 14 13 13 14 15 15 16 16 15 15 15 15 15 15 14 14 14 14 13 13 12 11 11 10 10 9 8 7 6 5 5 4 4 4 4 4 4 5 5 6 6 6 7 7 7 8 9 9 10
3 2 1 1 1 2 2 4 4 4 5 5 5 6 6 3 5 5 5 4 3 1 3 3 3 3 5 4 5 5 3 12 7 7 13 19 25 30 32 31 29 27 25 22 19 18 18 17 15 14 14 15 15 16 16 16 16 16 16 16 16 16 15 16 15 15 15 14 14 13 12 11 11 10 9 8 7 6 5 5 5 4 4 4 4 5 5 5 6 6 6 6 6 7 8 9 9
4 3 1 1 1 3 5 4 4 4 5 5 5 7 6 3 5 4 4 5 3 0 4 2 3 5 4 4 6 4 3 12 10 10 17 22 27 31 32 31 29 26 25 23 21 20 20 18 16 16 16 16 17 17 17 17 17 17 17 16 16 16 16 16 16 15 15 15 14 14 13 13 12 11 10 9 8 7 6 6 6 5 4 4 4 4 4 5 5 5 5 5 6 6 7 8 9
3 3 1 1 1 3 5 4 5 5 6 5 6 8 6 4 4 2 3 5 4 2 3 3 2 6 3 5 5 3 4 11 15 17 20 24 29 32 32 31 29 25 24 24 22 22 21 20 18 18 18 18 18 18 18 18 18 18 17 16 16 16 16 15 15 15 15 15 14 14 14 13 13 12 11 10 9 8 7 7 6 5 4 4 3 4 4 4 4 4 4 5 5 6 7 7 8
2 3 3 2 2 4 4 4 6 7 7 5 6 6 2 6 4 3 5 5 3 2 5 5 3 3 2 5 4 4 3 14 20 19 22 28 31 32 31 31 30 27 24 23 24 24 22 21 21 20 20 19 19 19 19 19 19 18 17 16 16 16 16 15 15 15 15 15 14 14 14 14 14 13 12 11 10 9 9 8 8 7 5 4 3 3 3 3 3 4 4 4 4 5 6 7 7
2 1 4 1 3 3 3 3 5 6 7 4 5 4 3 6 4 5 4 4 3 2 8 8 3 3 3 5 4 4 4 16 21 21 25 29 32 33 33 32 31 29 26 24 25 25 24 23 23 22 21 21 20 20 20 20 20 20 18 17 16 16 16 16 15 15 15 15 14 14 14 14 14 14 13 12 12 11 10 10 9 9 7 4 3 3 3 2 2 3 3 3 4 5 5 6 6
2 3 4 1 1 1 3 3 4 4 6 5 3 1 3 3 5 4 5 4 8 6 6 7 6 1 3 3 5 5 7 17 22 24 28 30 33 35 34 34 32 30 28 26 26 26 26 25 25 24 23 22 22 22 21 21 21 21 21 18 17 17 16 16 16 16 16 15 15 15 15 15 15 14 14 13 13 13 12 11 11 11 8 5 4 3 3 3 2 2 3 3 3 4 5 4 4
2 2 4 1 2 2 3 3 3 3 6 5 3 2 3 5 3 3 6 7 9 5 1 3 7 2 4 5 5 6 8 16 24 26 29 31 32 34 34 34 33 31 30 28 28 27 27 27 26 26 24 24 23 23 23 22 22 22 22 21 18 17 17 17 17 17 16 16 16 16 16 17 17 15 15 14 14 14 13 12 12 12 9 6 5 4 4 3 2 2 3 3 4 3 1 2 4
3 4 4 1 2 2 3 3 1 2 6 5 4 1 2 8 3 3 6 6 6 3 2 3 6 4 5 8 7 6 7 11 24 25 27 28 28 30 30 31 31 31 31 30 30 30 29 28 27 27 27 25 24 24 24 23 23 23 23 23 21 19 18 18 18 18 18 17 17 17 19 19 17 16 16 15 15 16 13 13 13 12 10 7 6 6 5 4 3 3 2 2 3 0 5 6 5
3 4 2 2 2 2 4 4 3 3 6 5 5 1 3 8 3 3 2 4 6 4 3 5 5 6 7 7 6 7 5 11 23 22 23 23 23 24 23 26 27 29 32 33 33 32 31 30 29 29 29 27 26 25 25 24 24 24 24 25 24 22 21 19 19 19 19 19 19 20 21 21 19 18 18 17 17 16 14 14 14 13 11 9 8 8 7 5 4 3 2 1 0 6 8 7 6
3 3 1 3 3 4 5 6 6 4 4 5 4 3 6 6 4 2 2 3 6 5 6 6 6 10 12 13 11 7 3 15 22 22 21 19 19 19 20 24 26 29 33 34 35 35 34 33 32 31 30 30 28 27 26 25 24 25 25 26 26 25 23 22 21 21 21 21 22 24 24 22 20 20 19 18 19 17 15 15 15 14 13 11 11 11 10 8 6 5 5 4 5 9 8 7 8
2 3 1 4 6 5 6 6 5 3 5 6 5 4 6 7 4 1 3 6 4 6 9 5 8 13 13 18 15 6 9 18 22 23 21 19 20 20 20 23 26 29 32 36 38 38 37 36 35 34 32 31 31 29 28 26 26 26 27 27 27 27 26 25 24 24 24 24 26 27 25 23 22 21 20 19 19 17 16 16 16 15 14 14 13 12 10 10 9 9 9 8 9 10 9 9 9
1 3 2 6 6 5 5 6 6 6 4 5 7 3 3 7 3 1 3 8 6 8 11 6 10 15 14 16 12 9 13 18 22 23 21 22 24 24 24 24 27 32 36 39 39 40 40 39 37 36 34 33 33 32 31 29 28 28 28 28 28 29 28 28 27 27 27 27 29 28 26 24 22 22 21 20 19 18 17 17 17 16 15 15 13 12 11 11 11 11 11 10 11 10 9 9 9
1 3 4 6 4 3 7 7 7 5 3 4 6 4 5 7 3 2 2 6 9 10 12 11 13 15 15 13 8 9 12 14 18 20 20 22 25 26 28 30 33 36 37 36 36 39 41 41 40 38 36 35 35 34 33 32 30 29 30 29 29 30 30 30 29 29 29 29 30 29 26 24 24 23 22 21 21 19 18 18 17 16 15 14 13 12 12 12 11 11 11 11 10 9 9 9 10
1 3 6 5 3 3 7 4 5 4 1 3 5 5 7 4 2 5 5 6 10 11 9 11 14 14 13 11 7 7 9 11 13 16 18 21 25 27 29 31 31 31 30 32 37 40 41 42 42 40 38 37 37 36 36 34 33 32 32 31 31 31 31 31 32 32 32 31 31 30 27 26 25 24 23 23 22 20 20 19 18 16 15 14 14 13 12 12 12 11 11 10 10 9 9 9 10
2 4 3 4 4 4 5 1 3 4 2 4 4 4 3 4 6 4 8 13 16 16 9 7 11 12 11 8 6 7 10 12 13 17 21 23 25 29 31 30 30 30 31 36 40 40 40 41 42 41 40 40 40 38 38 37 36 35 34 32 32 33 33 33 34 34 33 33 32 31 29 28 27 26 25 24 23 22 21 20 18 17 16 15 14 13 12 12 12 12 11 10 10 9 9 9 10
2 4 5 4 4 5 5 3 4 4 6 8 2 4 5 6 7 1 6 16 18 18 13 8 9 9 7 6 7 10 12 13 15 23 27 28 32 35 35 33 34 32 32 38 39 38 40 41 42 42 41 42 41 40 40 40 39 38 36 35 34 34 35 35 35 35 34 34 33 32 30 29 29 28 27 26 24 23 22 20 19 17 16 15 14 13 12 12 12 12 11 10 10 9 9 10 11
2 4 5 4 3 6 7 7 7 6 7 6 2 6 10 9 4 3 12 19 17 13 11 11 10 9 8 8 10 10 11 13 15 21 25 29 32 31 32 33 30 28 33 39 37 37 40 41 42 43 43 43 43 42 42 42 41 40 39 38 38 36 36 37 36 35 35 34 33 33 31 30 30 29 28 27 25 24 23 21 20 19 17 15 15 14 13 13 12 11 11 11 10 10 10 11 12
3 4 4 5 7 7 7 7 7 6 5 2 3 9 11 7 3 6 16 18 13 8 8 8 7 9 9 9 10 10 11 13 14 18 23 27 26 24 30 31 27 31 38 39 36 38 40 39 41 43 44 44 43 43 43 44 43 43 43 42 41 39 39 38 37 36 36 35 34 33 32 32 31 30 29 27 26 25 23 22 21 20 18 16 15 14 13 13 13 12 12 11 11 11 11 12 13
4 4 5 6 8 7 4 5 6 5 4 3 5 11 10 4 1 5 13 10 4 8 10 8 5 8 10 9 9 9 10 14 18 18 17 20 21 24 30 29 30 37 38 35 38 40 39 39 42 43 44 44 44 44 45 45 45 46 46 44 43 42 40 39 38 38 37 36 35 34 33 33 32 31 30 29 27 26 25 24 22 21 19 17 16 15 14 14 14 13 13 12 11 11 12 13 13
3 3 6 8 7 6 3 5 7 5 3 3 5 11 10 1 1 9 13 8 5 8 12 12 8 8 9 10 9 8 8 15 20 15 12 17 22 27 29 29 34 38 35 38 43 41 39 41 43 43 43 43 43 45 46 46 46 47 46 45 44 43 42 40 39 39 39 38 36 35 35 34 33 32 31 30 28 27 26 24 23 22 20 18 17 16 15 15 15 14 13 12 12 12 13 13 14
1 4 5 9 9 6 4 6 6 4 3 2 1 8 10 1 6 13 12 10 9 9 11 12 11 9 8 9 9 8 8 12 13 12 17 25 28 29 30 34 37 35 37 43 42 38 40 43 43 42 41 41 44 45 46 46 46 46 45 45 45 44 42 41 41 40 40 39 38 37 36 35 34 33 32 31 29 28 27 25 24 23 21 19 18 17 17 16 16 15 14 13 12 13 13 14 14
2 4 3 6 9 5 4 5 6 5 3 4 3 4 10 8 10 11 7 8 11 12 13 11 10 9 8 8 7 9 9 9 9 15 24 29 30 29 30 37 36 35 39 39 37 38 42 42 40 40 40 41 44 44 45 44 45 45 45 45 44 43 43 43 42 41 41 40 39 38 37 36 35 34 33 32 30 29 28 27 26 24 22 20 19 18 18 18 17 16 14 13 13 13 13 13 14
3 4 3 4 5 5 7 6 6 6 2 4 5 2 8 13 17 11 2 3 8 12 15 12 10 9 8 8 7 9 9 8 11 19 26 28 29 28 31 37 34 35 37 35 37 42 42 39 38 40 41 42 42 43 44 44 44 44 44 44 44 44 43 44 43 42 42 41 40 39 38 37 36 35 34 33 32 30 30 29 27 25 22 21 21 20 19 18 17 16 15 14 14 14 13 13 14
4 4 4 3 2 6 10 6 2 3 4 4 4 3 7 11 17 14 5 5 7 10 13 11 11 10 9 8 7 8 9 8 11 17 21 23 25 26 29 35 33 33 35 36 38 38 37 37 38 40 41 41 41 43 43 43 43 42 43 43 43 43 43 44 44 42 41 41 40 40 39 38 37 36 35 34 33 32 31 30 28 25 23 22 21 21 20 19 18 17 16 16 15 14 13 13 13
3 3 3 5 3 5 9 5 2 2 4 6 2 3 6 9 13 17 14 10 8 8 11 11 10 9 8 7 6 7 8 9 10 12 17 18 20 23 27 31 31 30 33 35 35 34 35 36 37 39 40 40 41 42 41 41 41 41 41 41 40 41 42 43 42 41 41 40 41 41 40 39 38 37 36 36 34 33 32 31 29 25 24 23 22 22 21 20 19 18 17 16 16 15 14 13 13
4 3 2 4 3 4 6 6 4 5 3 4 3 4 9 12 13 17 17 11 8 9 10 10 9 8 8 6 7 7 6 8 9 10 16 18 17 19 23 26 28 28 30 31 31 32 34 34 35 37 38 38 39 39 39 39 38 37 37 37 37 38 40 41 41 41 41 41 41 41 41 40 39 38 38 37 36 34 33 31 29 26 25 24 23 22 22 20 19 19 18 17 16 15 14 13 13
4 4 3 4 4 3 5 6 4 7 5 5 6 5 11 14 13 14 14 8 7 8 8 8 8 7 8 6 6 6 6 7 7 11 18 19 16 16 18 21 23 24 26 27 28 30 32 32 33 34 35 36 36 35 34 34 33 33 33 33 34 36 38 40 40 41 41 41 42 41 41 40 40 39 39 38 37 36 34 33 31 28 26 25 24 23 23 22 21 20 19 18 17 15 14 14 13
5 5 3 4 6 5 7 8 4 6 7 7 6 6 10 13 14 13 13 9 7 8 7 6 7 6 6 6 6 6 7 7 8 13 17 17 14 12 12 14 17 19 21 22 24 26 28 29 29 30 32 33 32 31 30 30 30 30 30 30 32 37 40 40 40 41 41 41 42 41 41 41 40 39 40 39 38 37 36 35 32 30 28 27 26 25 25 24 23 22 20 19 17 15 14 14 13
3 3 3 5 6 7 8 7 5 5 5 7 5 5 10 12 14 12 10 9 7 8 9 7 7 7 6 6 7 7 7 6 9 13 14 14 13 10 7 8 10 13 15 17 19 21 24 26 27 28 29 30 30 30 30 30 30 29 29 31 36 40 39 38 39 41 42 42 41 41 41 41 40 39 40 40 39 38 37 36 34 32 30 29 28 27 26 25 24 22 20 18 17 16 16 14 13
1 2 4 5 4 8 10 5 4 5 5 6 3 6 12 13 12 10 8 7 7 7 8 8 7 7 6 6 7 7 6 6 8 9 11 13 11 9 8 5 5 7 9 12 15 17 19 21 24 25 26 27 29 30 31 31 32 33 32 34 37 36 34 36 38 40 41 41 40 41 41 40 40 40 41 41 40 39 38 38 36 34 32 31 29 27 26 25 23 22 20 18 17 17 17 14 13
0 1 2 5 3 6 10 3 1 5 3 5 6 7 12 13 11 10 7 5 5 6 5 6 7 7 7 7 7 8 7 7 8 8 9 12 11 8 6 4 3 5 7 9 11 13 15 18 21 23 24 25 27 29 30 31 33 34 33 31 29 28 29 32 35 35 36 38 40 40 40 40 40 41 41 41 41 40 39 39 38 36 33 32 30 27 26 25 24 22 21 21 18 17 16 15 14
1 1 2 5 5 3 5 3 5 8 2 4 7 8 9 8 7 7 5 4 5 6 6 5 5 6 7 8 8 7 8 9 9 8 7 9 10 7 5 4 4 5 6 7 9 11 12 15 17 19 22 23 25 26 29 30 30 29 30 29 27 25 25 26 28 30 33 35 37 38 40 41 41 42 42 41 41 41 40 40 38 36 34 32 31 28 28 27 25 24 23 23 20 17 15 15 14
3 4 2 6 7 2 5 6 9 9 2 1 6 7 6 4 6 6 4 5 7 7 9 9 9 9 10 11 11 11 12 13 13 13 11 9 9 9 9 8 8 8 7 7 9 11 13 14 15 17 20 22 24 25 27 28 27 26 25 25 24 22 22 21 23 28 33 34 35 38 41 42 41 42 42 42 42 41 40 40 38 37 35 33 31 29 28 27 27 27 25 24 23 20 16 14 14
5 4 5 7 8 7 7 7 8 6 3 3 5 5 6 4 4 6 6 8 11 11 14 16 17 18 17 15 16 17 19 20 19 19 17 15 16 17 16 12 10 9 10 12 14 13 13 14 15 16 18 20 23 24 25 25 26 26 24 23 23 22 21 23 27 33 34 35 37 38 39 39 40 41 41 42 42 41 40 40 39 37 35 34 31 30 28 28 28 28 26 25 25 23 18 15 15
6 3 4 5 6 8 8 6 4 3 4 4 4 3 5 4 3 5 7 8 13 17 20 21 19 20 19 17 18 19 20 21 21 22 23 22 24 25 26 29 28 22 18 18 16 13 12 12 12 14 17 18 20 21 22 23 25 27 28 29 29 26 24 28 33 35 33 33 34 34 34 36 38 40 41 41 41 41 40 40 39 38 36 34 32 31 29 29 30 29 27 26 24 23 21 18 18
6 3 2 8 9 8 7 3 1 2 4 5 3 3 2 5 4 5 9 11 16 19 19 19 18 19 19 19 19 20 20 20 19 21 23 24 27 29 31 38 41 36 31 28 25 24 22 21 20 17 17 18 18 19 19 21 23 26 29 31 31 30 29 32 32 30 29 30 29 31 32 34 35 37 39 40 41 41 40 40 39 38 37 35 33 32 31 30 30 29 27 25 24 23 23 22 20
7 5 6 9 7 5 4 2 2 1 3 5 5 1 1 6 5 6 12 14 17 17 16 17 17 18 18 18 20 20 19 19 18 19 20 22 27 33 36 39 42 42 41 39 39 39 38 38 38 35 32 31 28 23 20 20 22 24 27 29 30 31 32 33 30 27 27 27 27 29 30 32 33 35 37 39 40 40 40 40 39 38 37 36 34 33 32 30 29 29 27 26 25 25 25 24 22
8 7 7 4 1 1 0 2 1 2 3 4 6 1 1 4 5 9 11 12 13 13 11 12 13 14 15 16 18 18 17 17 17 17 19 23 30 35 38 41 42 43 43 43 44 45 43 42 43 41 39 38 38 34 27 23 23 23 25 27 29 31 31 30 28 27 26 25 25 27 29 31 33 34 36 37 39 39 39 39 39 38 38 36 35 34 32 30 30 30 28 27 26 25 25 25 24
7 7 7 5 4 3 2 2 2 3 1 5 6 2 1 2 4 8 7 5 8 9 9 11 13 14 14 14 14 15 15 14 15 16 19 27 33 37 39 40 40 42 44 44 43 44 42 40 41 41 38 37 37 37 34 30 27 25 26 27 29 31 31 27 25 26 27 25 26 28 29 31 32 33 35 35 37 38 38 39 38 38 38 36 36 34 33 32 31 30 28 27 26 26 25 25 25
5 5 5 7 6 4 4 4 4 2 4 7 5 3 2 2 1 5 4 4 6 8 10 13 15 15 13 13 12 13 13 13 14 15 17 22 27 33 36 36 37 40 41 41 40 41 39 37 39 40 40 40 39 37 37 34 32 29 28 29 31 32 32 29 27 28 27 26 27 28 28 29 30 31 32 34 35 37 38 38 37 37 37 37 37 35 34 32 31 30 28 27 27 26 26 25 25
6 5 5 6 5 5 5 5 3 1 6 5 4 2 1 2 2 1 3 5 6 7 8 11 13 14 13 12 12 11 11 12 13 13 14 15 16 22 28 30 33 35 36 38 38 39 38 37 38 38 39 41 41 40 40 38 36 34 32 31 32 34 34 32 30 30 29 28 28 28 28 28 29 30 32 34 36 38 39 38 38 38 38 38 37 36 34 32 31 30 28 28 28 27 26 26 26
6 3 3 3 3 5 6 5 4 5 7 5 4 2 3 2 3 1 2 4 6 6 7 8 10 13 13 12 12 12 13 13 12 12 13 13 14 19 23 25 28 31 33 35 36 37 37 37 38 37 37 40 40 40 39 40 40 38 35 34 33 34 34 34 33 32 31 29 29 29 30 30 31 32 34 36 37 38 39 38 38 38 38 38 37 35 34 32 30 29 29 29 28 28 27 26 27
4 2 3 2 1 1 5 4 4 8 9 7 2 1 4 2 4 3 2 2 4 6 7 8 9 11 11 11 13 15 15 15 13 13 13 13 17 21 23 24 26 28 31 32 34 36 36 36 37 36 37 38 39 39 38 37 39 39 38 36 34 34 34 35 34 33 32 31 30 30 31 31 32 34 35 36 36 36 37 37 37 37 36 36 36 35 34 31 29 28 29 29 28 28 27 27 27
2 2 2 2 2 3 2 5 5 5 7 7 2 2 3 4 6 3 1 4 9 12 12 13 14 14 12 12 14 15 14 13 12 12 13 15 19 22 22 24 25 26 29 30 31 33 34 34 35 35 35 36 37 38 37 36 37 38 38 37 34 33 32 33 34 33 33 32 32 31 32 32 32 34 34 34 34 34 36 36 36 36 36 36 36 35 34 31 29 29 30 29 28 28 27 27 27
2 1 2 3 4 5 2 5 3 1 4 5 2 4 3 3 3 8 14 15 18 19 19 19 19 18 17 15 15 16 16 15 13 12 12 14 19 23 24 25 26 27 28 29 30 31 31 32 33 34 35 35 35 36 34 34 36 37 38 38 36 34 32 32 32 33 33 32 32 32 32 32 31 32 32 33 33 33 35 36 36 35 36 37 36 36 34 31 30 31 31 30 29 29 27 26 26
1 2 5 3 1 3 3 2 4 4 5 5 3 8 7 1 2 9 16 17 18 19 19 20 20 20 18 17 17 17 18 17 15 14 12 14 18 23 26 28 29 30 30 30 30 30 29 29 30 31 32 33 34 34 32 31 32 35 36 37 38 37 34 33 32 31 31 32 32 31 31 31 31 31 31 31 32 32 33 34 35 36 37 38 37 37 34 31 30 30 31 31 31 29 27 26 26
1 3 4 1 2 3 2 1 3 5 8 6 6 11 7 1 2 7 13 16 18 17 17 18 19 19 16 15 16 16 17 16 15 15 13 13 17 22 26 29 31 32 32 32 33 32 30 30 29 29 30 31 32 32 32 31 30 31 34 36 38 38 37 36 34 32 30 30 31 31 31 31 32 31 31 30 31 32 33 34 35 37 38 38 38 38 34 31 31 31 31 32 31 29 27 26 26
3 2 3 1 2 4 3 2 1 3 8 8 7 9 5 2 1 4 9 14 17 17 17 16 18 19 17 14 13 14 15 14 14 14 13 13 17 23 26 29 30 32 33 33 34 34 33 32 31 31 32 32 32 32 32 32 32 31 33 35 37 38 38 38 37 34 31 29 30 30 30 31 31 30 30 30 30 31 33 34 35 37 38 38 39 38 34 31 30 31 32 33 31 30 28 26 26
4 4 5 5 2 1 2 2 1 1 7 6 6 9 4 1 1 2 8 14 16 15 16 15 16 18 17 15 14 13 14 14 14 14 13 13 17 25 30 31 31 31 32 33 33 33 33 32 32 33 33 34 34 34 33 32 32 33 33 35 36 37 38 38 37 35 33 31 29 28 28 29 29 29 29 29 30 31 33 34 35 37 38 39 40 38 34 32 30 31 33 34 32 30 28 26 26
1 2 4 6 4 4 4 5 2 1 5 5 8 11 4 2 1 3 8 12 13 13 14 14 16 18 17 15 15 14 14 15 15 15 14 12 16 26 31 32 32 31 31 32 32 32 31 32 32 32 32 32 34 36 35 34 33 33 33 34 36 37 38 38 36 35 34 33 31 29 27 27 27 28 29 29 30 31 33 34 35 37 38 40 40 36 32 32 31 32 34 34 32 31 29 27 26
Wind_Direction
2 334 170 132 128 134 202 76 80 302 91 263 250 212 260 238 216 246 270 271 263 251 215 167 147 150 124 162 191 198 187 172 172 153 210 275 308 170 168 173 172 173 175 179 183 186 188 194 202 196 191 190 188 181 177 179 178 176 175 175 170 172 169 163 166 166 166 165 164 163 162 163 159 152 148 140 133 114 102 86 79 80 76 79 83 79 76 72 60 53 45 39 37 34 33 31 30
64 38 142 126 72 114 206 73 132 290 11 268 248 177 258 311 313 239 234 215 211 256 290 122 121 36 79 89 141 195 252 216 190 170 242 319 137 168 172 180 174 174 178 178 183 187 190 196 195 188 190 194 192 184 179 181 180 179 177 176 172 172 173 170 170 171 170 169 168 167 170 168 167 164 159 153 141 130 116 99 89 87 84 86 84 82 80 75 66 54 45 42 38 36 35 32 33
94 102 146 149 44 69 101 43 170 197 214 254 258 214 262 295 240 242 235 218 229 262 327 94 101 299 85 326 235 198 255 275 213 178 314 150 155 176 177 180 177 177 179 179 184 189 193 192 187 188 193 196 194 187 181 183 183 181 179 179 176 175 177 176 175 174 174 173 171 172 174 173 172 169 168 161 151 143 127 115 105 97 94 91 86 86 80 76 69 56 47 44 41 39 36 34 34
123 125 151 152 58 32 70 50 173 143 219 248 272 263 236 212 238 252 257 249 253 285 331 109 208 250 161 230 245 259 244 280 213 176 162 183 181 178 175 178 179 180 181 183 187 190 192 186 185 195 198 197 195 190 185 185 185 184 183 183 181 179 179 179 179 178 177 176 174 175 175 174 174 173 172 168 164 156 144 131 117 111 103 97 92 88 81 75 67 57 50 45 42 40 36 35 32
150 144 156 101 103 164 102 182 134 158 223 204 245 267 236 219 241 258 284 294 262 277 250 126 262 294 171 222 203 265 228 271 217 192 193 194 188 175 175 180 181 183 185 187 190 190 188 183 191 202 199 196 196 194 189 187 186 187 187 186 185 183 182 181 183 181 179 179 177 177 176 177 177 176 176 174 171 163 155 145 131 124 113 105 98 90 83 75 66 57 49 45 43 40 36 33 30
166 148 32 73 106 174 127 248 204 228 235 170 224 260 245 236 234 240 293 313 283 248 214 156 234 303 295 250 196 212 205 127 167 199 213 193 188 179 178 182 184 187 188 188 190 188 185 188 200 203 196 195 198 198 193 189 188 190 190 188 188 186 185 184 184 184 182 181 180 180 180 181 181 181 180 177 175 168 160 151 141 130 120 112 102 92 84 75 64 55 48 44 41 38 35 32 30
169 164 19 74 26 26 133 241 230 246 250 182 215 258 264 259 216 194 282 300 297 265 215 186 146 91 262 281 253 238 198 166 138 207 218 189 186 182 181 184 187 190 189 189 190 188 187 194 202 199 195 197 199 200 195 190 192 193 192 191 190 190 189 188 186 186 186 185 185 184 185 185 184 183 182 181 180 177 169 156 147 135 124 113 102 92 83 74 65 54 47 42 38 37 33 30 28
145 159 34 96 337 355 140 263 254 226 253 235 228 249 267 260 178 165 211 217 244 249 246 230 97 137 268 326 259 255 198 195 202 231 212 188 185 182 184 187 189 191 190 190 191 190 190 197 200 197 198 200 200 200 197 193 195 196 195 194 192 192 192 192 190 190 189 189 188 188 189 188 187 185 184 183 180 180 175 160 150 141 127 115 102 93 86 76 69 58 49 43 36 36 31 29 27
76 48 52 91 245 324 311 279 275 241 257 271 261 260 271 238 169 174 204 240 267 242 267 233 141 195 284 338 253 285 230 208 221 226 201 191 186 183 186 189 192 192 190 192 193 191 193 199 197 198 201 199 199 198 198 196 197 199 198 198 196 196 196 195 194 193 192 191 191 190 190 190 189 186 185 183 179 179 174 164 155 147 132 119 104 93 87 78 70 60 51 44 39 35 32 29 26
44 21 115 109 76 305 300 276 272 265 253 265 274 266 263 197 169 196 197 246 254 215 282 199 159 232 282 314 256 291 220 207 210 200 196 194 188 186 189 192 196 194 192 194 195 194 195 198 195 199 200 198 197 197 198 198 200 201 201 201 200 200 200 200 199 198 196 195 194 193 192 191 189 187 186 183 178 176 171 167 159 151 138 125 110 96 84 77 68 59 50 45 40 34 32 29 29
34 353 74 131 65 268 266 267 277 269 270 305 292 259 238 159 135 229 214 260 252 223 273 122 207 240 260 289 250 260 199 195 202 197 194 193 190 191 193 194 197 199 200 197 194 196 196 197 197 198 199 197 197 197 198 199 201 202 204 204 204 205 204 204 204 203 202 200 199 197 196 193 191 189 188 185 184 188 188 185 172 159 145 133 116 103 86 78 67 58 50 47 43 36 35 31 32
58 336 54 128 205 229 229 253 278 281 294 314 289 278 202 134 134 230 216 249 244 238 245 186 206 183 184 277 252 282 228 198 205 202 194 191 193 195 197 196 197 203 207 202 196 196 197 198 198 198 199 198 198 198 198 199 203 203 205 207 207 208 208 209 208 208 207 206 205 201 200 197 194 193 192 193 200 208 211 209 197 182 159 141 128 117 98 87 73 62 55 52 48 38 38 35 33
111 128 85 173 204 197 231 254 280 301 303 274 258 292 114 138 205 228 184 233 219 236 251 208 163 116 203 260 270 302 244 211 206 200 195 192 196 196 197 198 199 204 208 206 200 198 199 200 200 200 199 200 200 200 199 200 203 205 206 208 210 211 211 212 211 212 211 209 209 206 206 201 199 201 200 203 211 216 218 216 207 198 179 157 151 136 117 109 89 71 69 64 55 45 45 39 29
141 144 113 239 265 138 235 265 291 295 281 266 269 261 152 185 227 200 142 236 236 205 238 202 148 109 241 253 294 291 242 219 201 196 195 193 195 194 198 200 201 204 207 209 205 202 201 203 204 203 202 202 204 202 202 202 203 206 207 208 211 213 213 214 214 214 214 212 212 210 208 206 208 209 205 208 211 216 219 214 208 203 189 171 166 151 143 136 108 89 83 75 62 54 51 32 9
146 130 94 149 308 327 234 237 271 273 265 259 268 188 197 247 178 163 192 222 249 212 202 191 157 185 213 192 246 249 251 220 195 193 191 190 193 193 197 199 202 205 207 210 209 207 205 206 206 206 205 204 207 206 204 204 205 207 208 209 209 214 215 215 216 216 216 215 215 212 210 213 216 212 210 210 209 219 222 211 207 202 190 177 173 160 155 148 127 111 96 81 64 59 37 289 294
117 107 68 19 271 290 238 223 251 287 263 241 265 153 203 267 180 193 227 200 269 258 148 205 182 217 205 186 225 257 289 214 190 190 186 187 192 193 197 199 203 206 208 211 211 212 209 209 210 210 209 207 210 209 207 207 208 210 210 210 209 213 215 216 217 217 218 217 215 213 215 221 219 212 214 212 209 223 222 208 206 199 189 176 168 167 165 153 136 123 109 87 67 285 258 267 283
64 83 70 292 234 227 221 211 202 224 263 267 291 234 202 282 266 229 239 169 248 258 194 226 211 232 226 215 260 306 307 189 181 181 180 185 190 193 199 201 204 207 210 212 213 214 213 214 214 213 212 211 212 212 211 210 210 213 213 214 212 212 214 216 218 217 219 218 216 215 220 225 220 215 219 216 213 224 221 209 207 201 196 183 181 192 194 187 164 150 142 109 236 253 265 279 286
53 92 156 255 208 210 198 195 204 192 266 270 279 228 201 267 281 266 320 221 244 271 255 254 260 255 250 252 269 304 215 174 173 174 177 184 188 193 201 204 206 208 211 213 215 216 215 217 217 217 216 215 215 215 215 213 213 215 217 217 215 215 214 216 217 218 218 218 218 220 224 225 222 222 225 223 220 226 221 213 211 205 203 199 206 215 214 209 198 203 214 218 245 258 272 282 288
103 126 195 243 207 219 203 196 210 201 259 265 277 253 202 236 254 36 280 271 293 285 266 251 261 263 261 257 254 242 181 173 175 177 180 186 190 196 202 206 208 212 213 214 216 216 217 219 220 219 219 218 218 218 218 216 215 217 219 220 219 218 217 216 217 218 219 219 221 225 227 226 225 227 229 228 227 228 222 218 214 207 209 213 221 228 225 222 217 225 231 235 250 261 273 282 294
166 140 250 247 217 243 239 213 220 224 248 280 289 278 212 241 246 105 255 286 297 256 255 235 241 252 251 252 239 204 184 181 183 185 188 193 197 199 201 204 208 213 215 216 217 216 217 219 221 222 222 221 221 220 219 219 218 219 221 221 222 222 221 220 218 219 219 220 224 228 230 227 225 227 229 229 229 227 222 219 216 212 216 220 227 231 229 228 229 236 240 244 253 261 272 284 297
185 154 210 234 198 266 261 222 227 235 222 258 289 335 292 263 220 216 249 302 286 252 245 228 231 242 243 250 231 192 186 190 193 194 198 200 204 205 206 208 210 215 216 217 219 218 219 220 221 223 224 224 224 222 221 221 221 221 222 222 223 224 224 224 221 221 220 221 226 229 230 228 225 226 227 228 229 227 223 221 220 219 219 221 226 228 228 231 234 239 241 246 253 262 275 289 300
217 218 216 225 165 271 270 225 234 228 159 269 294 309 280 274 227 220 216 246 259 258 240 217 230 238 240 247 226 192 191 199 200 202 206 207 209 210 213 214 215 218 217 219 221 221 221 221 222 223 224 225 226 226 225 225 224 223 224 224 224 225 226 226 225 224 223 223 226 229 230 228 226 225 226 228 229 228 226 226 225 223 220 220 223 225 228 232 235 239 242 248 254 264 277 291 301
265 274 289 266 197 251 279 254 243 200 183 253 254 272 278 313 291 226 206 228 244 259 254 208 230 240 246 253 218 198 205 205 205 208 207 209 212 213 214 215 216 217 217 222 224 223 223 223 223 224 225 226 228 228 228 228 228 227 227 226 226 227 227 226 227 227 226 225 227 229 229 228 226 225 226 228 229 228 228 229 228 225 222 221 222 224 228 231 235 240 244 249 255 265 277 290 297
208 265 310 295 212 235 266 285 274 208 219 239 235 317 290 268 282 301 230 242 247 260 271 260 251 253 256 258 227 217 217 211 214 214 211 212 215 216 216 216 217 217 218 224 225 224 224 224 225 225 227 228 229 228 228 230 230 231 230 229 229 230 229 228 228 228 228 228 228 229 229 229 228 227 228 228 229 229 230 231 230 229 225 222 222 222 226 229 235 239 244 249 255 265 276 287 294
169 233 285 296 258 258 277 293 287 258 239 250 298 287 259 239 255 299 261 260 263 266 276 271 265 269 257 242 237 230 227 225 224 222 219 221 222 222 222 220 220 218 221 226 226 226 227 226 226 226 229 230 231 230 229 230 231 231 231 231 230 230 231 231 230 229 228 229 229 229 229 229 229 228 229 229 228 229 230 231 231 231 227 223 222 222 224 228 233 238 243 246 254 266 277 288 292
216 234 274 289 295 294 305 300 287 275 252 232 258 264 260 247 258 275 259 259 277 296 288 275 275 277 264 248 242 229 227 232 231 227 225 227 227 227 228 225 221 221 226 228 227 229 230 228 228 229 230 231 231 230 231 231 231 231 232 232 231 230 232 233 232 231 230 229 230 230 229 230 230 230 230 229 229 229 230 230 231 231 229 226 225 224 226 227 231 235 239 245 255 267 278 288 291
224 260 277 279 293 297 316 301 299 302 264 199 228 268 271 264 313 271 262 258 318 334 302 297 293 271 268 263 255 234 225 231 232 230 228 231 227 226 230 225 221 226 228 229 229 231 231 230 231 232 232 231 230 231 232 232 232 233 233 232 231 231 232 232 231 231 231 230 231 231 230 231 231 231 231 229 229 229 229 230 231 231 230 228 227 228 227 228 231 233 238 244 255 267 278 287 289
238 304 302 297 316 306 330 337 326 344 298 204 206 271 281 325 151 245 264 284 351 329 300 302 297 276 274 269 265 247 228 233 233 227 224 229 225 224 228 224 223 227 227 229 233 232 231 233 235 235 233 230 230 232 232 232 232 233 233 232 232 232 231 231 232 232 231 231 232 231 231 232 231 231 230 229 230 230 230 230 231 231 231 229 228 229 228 229 231 233 238 243 254 266 276 285 285
248 43 343 314 354 348 348 357 325 351 326 270 204 294 304 248 216 246 270 295 314 313 298 299 295 286 278 268 268 257 244 239 228 218 225 230 230 227 228 229 227 226 228 233 234 232 233 235 236 236 233 231 232 234 233 232 233 233 232 232 233 232 230 231 232 233 233 232 232 232 232 233 233 233 230 230 231 231 231 231 232 232 232 230 229 230 229 230 230 232 236 241 251 261 272 279 279
293 34 36 329 359 337 330 357 323 347 324 319 31 315 305 285 262 266 272 293 313 316 305 302 297 290 281 273 272 267 259 245 225 223 229 234 236 232 233 237 232 229 233 234 233 234 236 236 235 235 234 234 234 234 233 232 233 233 232 233 232 231 230 231 233 234 233 232 232 232 233 234 234 235 233 231 231 231 232 232 232 232 231 230 229 230 231 231 231 232 234 238 245 255 265 270 274
333 352 37 28 4 293 314 338 341 2 336 6 48 244 282 292 297 298 237 304 328 314 307 308 303 297 293 283 276 275 270 250 238 237 237 238 239 236 236 241 237 233 235 234 234 238 237 235 234 236 237 236 234 233 233 234 234 233 232 232 232 231 231 231 233 234 233 232 232 232 233 234 235 236 236 234 233 232 232 232 232 232 231 229 229 231 231 231 231 233 234 237 242 250 258 265 273
22 6 340 350 355 289 313 321 59 24 301 9 57 245 276 282 293 301 304 348 340 309 304 308 305 300 297 295 290 287 287 280 266 258 255 250 246 242 240 244 242 237 237 236 237 238 237 235 235 237 237 236 235 235 235 235 234 233 233 233 232 232 231 231 233 233 233 232 232 233 233 234 235 237 237 236 235 234 234 235 234 234 232 229 230 231 231 231 232 233 235 239 242 247 254 262 270
4 39 304 290 309 314 319 310 89 62 303 345 27 240 282 280 289 303 313 334 342 319 309 308 305 302 304 309 310 305 303 308 303 286 281 271 258 250 245 247 246 242 241 241 239 237 237 237 236 236 236 236 237 236 235 234 233 233 234 233 232 231 231 232 233 232 232 232 233 233 234 233 234 236 237 237 236 236 236 237 236 236 234 231 231 231 231 232 232 234 237 241 244 247 251 257 265
322 24 321 274 269 293 317 307 331 37 45 332 315 241 263 275 288 301 306 327 344 325 314 311 310 314 320 326 327 325 319 313 310 304 304 300 281 263 254 252 249 245 244 243 242 240 240 241 239 237 236 237 238 236 234 232 232 232 233 233 233 233 233 233 233 233 233 233 233 234 233 232 233 234 236 236 236 236 237 238 238 238 236 232 232 232 232 232 233 235 238 241 244 246 250 254 263
277 304 305 300 285 249 278 284 313 19 19 308 302 277 270 280 291 296 297 325 343 317 311 312 315 324 326 339 345 338 338 325 311 312 321 324 310 286 270 262 255 249 246 245 244 243 242 242 241 238 237 237 236 235 233 231 230 230 232 233 234 235 235 235 234 233 234 233 234 234 233 232 232 233 234 235 235 234 235 236 237 237 236 233 232 232 231 230 231 233 236 239 243 248 251 255 262
230 254 230 271 291 273 262 265 293 10 345 297 278 273 282 293 299 298 301 324 335 316 324 327 330 342 335 347 354 345 349 337 317 324 339 350 344 323 295 278 267 255 249 248 246 243 241 239 238 238 238 237 234 231 229 228 227 228 231 232 234 236 236 235 234 234 234 234 235 234 233 233 232 233 234 234 234 233 234 234 235 236 235 232 231 231 230 230 231 232 234 237 241 245 249 253 258
221 257 251 263 279 284 282 274 290 5 349 276 252 278 287 288 289 288 301 326 335 332 343 342 342 346 332 345 350 342 340 316 316 334 351 3 3 358 337 303 279 264 255 251 246 243 240 236 236 239 240 235 231 230 228 226 224 224 227 230 235 237 235 233 233 234 234 235 235 235 235 235 234 234 234 234 233 232 232 232 232 233 233 231 232 233 233 233 232 233 235 237 241 241 242 246 248
225 263 277 291 271 271 292 290 287 10 15 280 300 324 294 287 289 291 311 332 329 337 345 333 329 332 324 340 342 333 322 308 324 338 347 357 2 4 357 337 298 273 264 256 250 248 243 239 240 242 241 236 235 235 231 230 231 231 231 233 237 238 235 234 235 235 235 235 236 236 236 236 235 234 235 234 233 231 230 229 230 230 231 231 232 234 234 234 232 231 232 233 236 238 242 243 238
357 321 318 315 294 286 301 299 316 5 9 286 326 330 292 290 290 289 304 308 298 320 333 307 305 320 328 333 331 330 327 323 329 325 326 339 346 348 344 330 288 272 277 270 257 254 248 245 246 244 243 243 242 239 236 238 240 238 235 236 239 241 241 240 240 240 239 239 238 237 236 236 236 235 235 235 233 231 230 229 229 229 230 230 230 231 231 232 231 230 231 230 230 233 240 240 233
312 275 359 312 309 342 308 305 345 334 299 252 308 308 288 301 308 294 298 296 302 327 330 306 290 298 307 312 311 311 315 316 318 313 310 323 330 323 302 283 262 263 279 279 267 262 258 257 256 253 252 251 248 245 244 243 241 239 238 238 242 246 249 248 246 245 243 243 240 238 237 237 237 235 235 235 233 232 231 230 229 229 229 229 229 230 230 231 230 230 230 229 228 226 232 233 227
301 228 239 296 301 277 248 286 325 328 316 238 326 324 300 336 350 319 320 329 330 350 353 343 342 336 326 328 334 335 335 334 329 321 314 315 316 301 284 272 264 271 285 297 292 280 274 272 270 266 262 258 256 253 249 244 239 239 238 237 240 244 247 245 241 242 241 239 238 238 239 237 236 235 234 234 234 233 232 231 230 229 229 229 229 230 232 233 232 231 230 228 228 226 229 229 223
320 249 228 269 293 282 267 297 324 349 360 330 22 10 296 331 4 315 316 338 346 11 16 5 0 0 360 358 359 1 359 356 350 343 336 330 323 314 309 308 304 305 321 330 325 314 306 300 293 288 282 274 269 264 256 248 243 240 236 231 231 231 232 232 235 240 239 237 238 238 238 237 235 234 234 234 234 233 232 232 230 229 229 228 228 229 232 234 234 232 230 229 230 230 231 229 223
325 248 219 270 296 295 298 321 345 360 307 301 60 103 264 318 360 312 322 358 12 22 21 14 10 9 11 11 9 10 8 5 0 357 356 353 346 339 337 340 341 344 348 348 348 347 340 327 314 303 294 288 282 275 265 255 247 243 238 235 234 231 229 236 242 245 244 242 242 240 238 237 236 235 234 234 234 233 232 231 229 229 228 228 228 229 231 234 234 233 232 231 232 233 231 229 226
293 246 355 315 305 296 292 310 225 241 285 313 26 122 229 297 296 328 355 19 27 26 20 14 13 10 10 11 10 10 7 6 4 1 3 4 2 358 352 350 352 357 1 3 4 6 5 359 349 336 323 315 306 291 276 263 253 247 243 241 241 238 238 245 250 251 250 249 246 242 240 239 238 237 235 234 234 232 230 229 229 227 226 227 227 229 232 234 233 232 231 231 233 235 232 231 230
268 277 326 302 294 285 258 222 218 252 347 324 323 77 225 284 297 7 20 25 19 17 16 11 10 10 9 8 6 7 5 4 5 3 2 5 5 3 0 1 4 7 8 7 7 10 13 12 7 2 357 353 345 328 301 280 267 258 251 246 245 246 247 250 254 254 254 252 248 244 242 239 239 238 236 234 233 231 229 228 228 226 224 225 227 231 233 232 232 231 230 229 230 233 234 234 234
281 306 313 294 34 21 184 131 168 27 27 275 276 330 349 300 347 15 21 23 7 359 7 7 7 9 8 8 5 3 2 0 1 2 2 4 4 3 3 6 8 9 9 9 8 9 11 13 10 8 6 4 1 354 338 316 297 277 265 257 253 255 255 255 255 255 254 252 248 245 241 238 237 236 234 232 231 230 228 227 227 225 224 225 227 229 229 229 230 230 231 231 231 232 234 234 235
316 352 334 333 19 33 40 73 74 38 328 250 250 213 111 310 26 39 25 358 339 342 355 359 5 8 7 7 5 0 358 358 358 359 2 2 1 1 3 5 3 4 6 7 7 6 6 7 7 5 4 4 3 2 357 345 330 308 287 275 268 266 266 262 258 257 254 250 247 244 242 239 236 234 232 229 228 228 227 226 226 225 224 224 225 226 227 228 228 228 229 230 231 232 233 234 234
351 7 352 343 340 2 12 1 32 36 277 266 243 183 146 252 316 51 33 339 331 343 355 357 359 1 1 2 1 359 356 355 358 360 2 1 359 359 360 0 359 360 1 1 1 1 2 3 3 2 0 359 358 357 356 353 346 334 315 296 284 279 276 270 264 262 260 254 250 248 244 240 235 232 230 227 226 227 225 224 224 223 221 221 223 224 226 226 225 226 226 228 230 230 231 232 231
7 4 21 12 345 356 351 333 355 256 257 254 213 221 282 182 179 335 6 8 351 348 356 357 355 354 355 356 355 355 355 356 0 3 1 360 359 356 355 355 356 356 356 356 356 356 356 357 359 360 358 357 355 353 351 349 346 343 335 319 302 291 284 278 272 268 267 262 257 252 245 238 234 230 227 225 226 226 224 222 221 221 220 220 221 222 223 223 222 223 225 227 229 229 229 230 230
355 360 41 29 10 354 325 308 319 295 281 260 199 234 292 160 147 240 347 5 349 352 356 353 355 352 348 349 351 353 357 359 1 2 0 360 356 352 351 351 353 353 352 352 353 353 352 352 353 353 352 353 354 352 349 347 344 341 339 333 322 308 294 286 280 275 273 269 263 256 249 242 237 232 229 229 230 227 224 222 221 221 220 220 219 219 220 220 221 224 227 227 227 228 229 229 231
321 185 137 68 96 332 294 269 286 302 302 297 285 211 258 217 156 184 211 304 343 1 358 354 358 354 346 348 355 357 357 357 357 356 356 354 351 349 347 348 349 350 350 351 351 351 350 349 349 348 347 348 349 348 346 344 343 341 338 336 333 325 310 296 288 283 280 275 269 262 254 248 241 238 237 235 233 227 223 222 221 220 220 219 218 218 217 217 220 224 226 227 227 228 228 228 230
298 165 89 15 186 182 249 236 231 275 298 301 304 242 240 155 142 129 8 346 4 5 360 0 357 356 355 355 0 359 354 352 350 349 349 346 345 345 344 344 345 345 346 347 347 347 347 346 345 344 343 343 344 344 342 339 340 340 338 335 332 330 323 310 299 292 288 283 276 268 259 253 247 243 241 237 233 227 224 222 220 219 219 218 218 217 216 218 222 223 222 224 225 226 226 227 230
319 349 317 266 187 150 199 273 276 334 282 277 288 285 300 131 140 22 15 4 3 1 357 356 352 354 358 358 0 358 351 348 344 342 341 338 339 340 341 341 341 341 340 340 340 341 341 341 340 340 339 340 341 341 339 336 336 336 335 334 331 327 324 319 310 303 297 291 284 275 266 258 252 247 243 239 235 230 226 222 219 218 218 218 218 216 217 221 224 222 221 223 223 223 224 226 229
77 301 276 260 109 101 120 279 335 354 274 270 314 291 293 247 261 4 17 5 359 356 350 349 349 353 356 354 355 351 346 341 334 333 332 332 335 337 338 337 336 336 334 332 332 332 333 333 334 334 333 335 335 335 334 332 332 333 331 332 330 325 321 320 318 311 303 296 289 282 272 263 256 251 245 241 236 230 226 222 219 218 218 218 217 215 218 224 223 219 221 225 225 223 222 224 229
174 256 277 9 3 319 353 325 317 317 282 279 298 286 285 112 285 347 11 3 354 348 344 347 348 349 348 344 344 340 338 334 328 328 326 327 331 332 333 332 330 330 329 327 327 327 328 328 328 328 328 329 329 329 330 327 326 328 328 328 327 325 322 319 319 316 307 298 293 288 279 269 262 255 247 241 235 229 225 221 219 219 218 217 216 216 218 221 218 215 219 223 223 221 220 223 227
347 329 315 9 178 223 272 297 248 285 283 284 292 289 292 109 269 344 9 360 352 344 343 347 345 343 339 335 333 330 329 328 323 322 319 319 323 327 330 328 324 324 324 324 324 324 325 325 325 326 325 325 325 326 327 325 323 323 324 324 324 324 322 319 318 315 307 298 294 289 282 275 267 258 250 243 235 229 225 222 220 220 218 216 215 216 217 215 211 213 218 219 219 218 218 221 225
344 341 319 324 314 236 289 287 141 247 282 292 297 290 286 148 214 13 11 358 353 344 340 341 339 337 334 329 328 325 323 322 319 317 314 312 319 326 329 325 322 320 319 320 320 320 320 320 322 323 324 323 323 323 324 322 322 321 320 320 320 321 320 318 318 315 308 299 293 288 284 277 268 259 251 243 235 231 227 224 222 220 218 216 215 215 215 212 208 211 216 218 217 216 216 218 222
205 290 329 344 348 10 335 299 327 357 296 302 300 295 294 152 195 31 17 356 344 334 333 337 336 333 330 326 326 325 322 322 320 317 312 311 320 327 326 322 320 318 316 317 317 316 316 316 318 319 319 319 318 320 321 319 319 318 317 317 317 317 317 315 315 315 310 303 294 288 283 275 266 259 252 243 236 232 228 225 224 221 218 217 216 214 212 210 209 211 214 215 215 215 215 215 218